Weather History for KCXY - November, 2012

Change the Weather History Date:

Monday, November 19, 2012

  Actual Average Record
Temperature  
Mean Temperature 40 °F -  
Max Temperature 51 °F 49 °F 72 °F (1928)
Min Temperature 30 °F 33 °F 18 °F (1924)
Degree Days  
Heating Degree Days 24    
Moisture  
Dew Point 30 °F    
Average Humidity 77    
Maximum Humidity 96    
Minimum Humidity 35    
Precipitation  
Precipitation 0.00 in - - ()
Sea Level Pressure  
Sea Level Pressure 30.43 in    
Wind  
Wind Speed 1 mph (SSW)    
Max Wind Speed 5 mph    
Max Gust Speed -    
Visibility 7 miles    
Events      
Averages and records for this station are not official NWS values.
T = Trace of Precipitation, MM = Missing Value Source: NWS Daily Summary

Daily Weather History Graph

Daily Weather History Graph

Search for Another Location

Airport or City:

Trip Planner

Search our weather history database for the weather conditions in past years. The results will help you decide how hot, cold, wet, or windy it might be!

Date:

Astronomy

Nov. 19, 2012 Rise Set
Actual Time 6:58 AM EST 4:47 PM EST
Civil Twilight 6:28 AM EST 5:16 PM EST
Nautical Twilight 5:55 AM EST 5:49 PM EST
Astronomical Twilight 5:23 AM EST 6:22 PM EST
Moon 11:59 AM EST (11/19) 11:12 PM EST (11/19)
Length of Visible Light 10h 47m
Length of Day
9h 49m
Waxing Crescent, 40% of the Moon is Illuminated
Nov 19
Waxing Crescent
Nov 20
First Quarter
Nov 28
Full
Dec 6
Last Quarter
Dec 13
New

Hourly Weather History & Observations

Time (EST) Temp. Windchill Dew Point Humidity Pressure Visibility Wind Dir Wind Speed Gust Speed Precip Events Conditions
12:56 AM 30.9 °F - 28.9 °F 92% 30.54 in 3.0 mi Calm Calm - N/A   Clear
1:08 AM 30.2 °F - 28.4 °F 93% 30.53 in 2.5 mi Calm Calm - N/A   Clear
1:18 AM 30.2 °F - 28.4 °F 93% 30.53 in 4.0 mi Calm Calm - N/A   Clear
1:56 AM 30.9 °F - 28.9 °F 92% 30.54 in 4.0 mi Calm Calm - N/A   Mostly Cloudy
2:56 AM 33.1 °F - 30.9 °F 92% 30.53 in 5.0 mi Calm Calm - N/A   Overcast
3:56 AM 32.0 °F - 30.9 °F 96% 30.52 in 4.0 mi Calm Calm - N/A   Mostly Cloudy
4:56 AM 34.0 °F - 32.0 °F 92% 30.51 in 4.0 mi Calm Calm - N/A   Overcast
5:09 AM 33.8 °F - 30.2 °F 87% 30.50 in 5.0 mi Calm Calm - N/A   Overcast
5:17 AM 33.8 °F - 32.0 °F 93% 30.50 in 5.0 mi Calm Calm - N/A   Overcast
5:56 AM 35.1 °F - 33.1 °F 92% 30.51 in 6.0 mi Calm Calm - N/A   Overcast
6:21 AM 33.8 °F - 30.2 °F 87% 30.49 in 5.0 mi Calm Calm - N/A   Scattered Clouds
6:56 AM 32.0 °F - 30.0 °F 92% 30.50 in 4.0 mi Calm Calm - N/A   Clear
7:41 AM 32.0 °F - 30.2 °F 93% 30.49 in 7.0 mi Calm Calm - N/A   Mostly Cloudy
7:56 AM 33.1 °F - 32.0 °F 96% 30.50 in 7.0 mi Calm Calm - N/A   Mostly Cloudy
8:04 AM 33.8 °F - 32.0 °F 93% 30.49 in 7.0 mi Calm Calm - N/A   Scattered Clouds
8:56 AM 39.0 °F - 32.0 °F 76% 30.50 in 7.0 mi Calm Calm - N/A   Scattered Clouds
9:12 AM 41.0 °F - 33.8 °F 76% 30.48 in 7.0 mi Calm Calm - N/A   Mostly Cloudy
9:56 AM 43.0 °F 41.3 °F 34.0 °F 71% 30.49 in 9.0 mi NNW 3.5 mph - N/A   Clear
10:56 AM 46.0 °F 44.8 °F 34.0 °F 63% 30.47 in 10.0 mi NNW 3.5 mph - N/A   Clear
11:56 AM 48.9 °F - 30.9 °F 50% 30.42 in 10.0 mi ESE 3.5 mph - N/A   Clear
12:56 PM 48.9 °F - 30.9 °F 50% 30.38 in 10.0 mi Calm Calm - N/A   Clear
1:56 PM 51.1 °F - 24.1 °F 35% 30.36 in 10.0 mi East 4.6 mph - N/A   Clear
2:56 PM 51.1 °F - 25.0 °F 36% 30.35 in 10.0 mi ESE 3.5 mph - N/A   Clear
3:56 PM 48.9 °F - 27.0 °F 43% 30.33 in 10.0 mi SSE 4.6 mph - N/A   Clear
4:56 PM 44.1 °F - 28.0 °F 53% 30.33 in 10.0 mi Calm Calm - N/A   Clear
5:56 PM 41.0 °F - 28.9 °F 62% 30.33 in 10.0 mi Calm Calm - N/A   Clear
6:56 PM 39.0 °F 36.8 °F 28.9 °F 67% 30.33 in 10.0 mi WSW 3.5 mph - N/A   Clear
7:56 PM 37.0 °F 34.5 °F 30.0 °F 76% 30.32 in 10.0 mi WSW 3.5 mph - N/A   Clear
8:56 PM 36.0 °F - 28.9 °F 76% 30.31 in 10.0 mi Calm Calm - N/A   Clear
9:56 PM 34.0 °F - 28.9 °F 82% 30.28 in 10.0 mi Calm Calm - N/A   Clear
10:56 PM 33.1 °F - 28.0 °F 82% 30.28 in 9.0 mi Calm Calm - N/A   Clear
11:56 PM 33.1 °F 30.0 °F 28.9 °F 85% 30.26 in 9.0 mi WSW 3.5 mph - N/A   Clear